Location: Newark
(44.3681°N, 100.3364°W)
Time: 14:13:22
(UTC+00:00)

S-56A Canister/Altair - Pass Details

Date: 28 February 2020
Orbit: 634 x 2498 km, 38.9° (Epoch: 29 March)

Event Time Altitude Azimuth Distance (km) Brightness Sun altitude
Rises 20:02:55 0° 277° (W) 5,958 12.2 35.4°
Reaches altitude 10° 20:06:43 10° 274° (W) 5,063 12.0 35.2°
Maximum altitude 20:21:21 61° 200° (SSW) 2,703 11.7 34.1°
Drops below altitude 10° 20:34:31 10° 125° (SE) 4,592 11.6 33.0°
Sets 20:37:47 0° 122° (ESE) 5,392 11.9 32.7°
